Regional Weather Roundup
Issued by NWS

Home | Current Version | Previous Version | Graphics & Text | Print | Product List | Glossary On
Versions: 1 2 3 4 5 6 7 8 9 10 11 12 13 14 15 16 17 18 19 20 21 22 23 24 25 26 27 28 29 30 31 32 33 34 35 36 37 38 39 40 41 42 43 44 45 46 47 48 49 50
895
ASUS45 KCYS 030410
RWRWY

WYOMING REGIONAL WEATHER ROUNDUP
NATIONAL WEATHER SERVICE CHEYENNE WY
1000 PM MDT MON MAY 02 2016

NOTE:  "FAIR" INDICATES FEW OR NO CLOUDS BELOW 12,000 FEET
WITH NO SIGNIFICANT WEATHER AND/OR OBSTRUCTIONS TO VISIBILITY.

WYZ001-030500-
YELLOWSTONE NATIONAL PARK

CITY           SKY/WX    TMP DP  RH WIND       PRES   REMARKS
LK YELLOWSTONE   N/A     34  25  69 CALM      30.29R
W YELLOWSTONE  NOT AVBL

$$
WYZ002>013-054>058-071-098>099-030500-
NORTHERN WYOMING

CITY           SKY/WX    TMP DP  RH WIND       PRES   REMARKS
JACKSON        FAIR      45  25  45 E7        30.21R
CODY           FAIR      54  28  37 NW3       30.18R
GREYBULL       FAIR      61  29  29 NW13      30.10R
WORLAND        FAIR      50  35  56 SE5       30.12R
SHERIDAN       FAIR      48  35  60 SW3       30.15R
BUFFALO          N/A    N/A N/A N/A MISG      30.18R
GILLETTE       FAIR      47  36  65 NW10      30.12R
HULETT         FAIR      52  36  54 N3        30.11R
NEWCASTLE      FAIR      52  32  46 NW8       30.09R

$$
WYZ014>020-022>026-101>103-030500-
CENTRAL WYOMING

CITY           SKY/WX    TMP DP  RH WIND       PRES   REMARKS
BIG PINEY      FAIR      45  16  31 N3        30.23R
PINEDALE       MOCLDY    39  21  48 SW3       30.24R
DUBOIS         FAIR      45  21  39 E5        30.25R
LANDER         FAIR      48  23  37 SW7       30.19R
RIVERTON       FAIR      54  28  36 CALM      30.20R
CASPER         FAIR      40  35  83 N8        30.18R WCI  34
DOUGLAS        FAIR      41  33  73 W7        30.16R

$$
WYZ021-027>030-104>119-030500-
SOUTHERN WYOMING

CITY           SKY/WX    TMP DP  RH WIND       PRES   REMARKS
EVANSTON       FAIR      47  23  38 N6        30.25R
KEMMERER         N/A     43  12  28 NW5       30.26R
FORT BRIDGER   CLEAR     43  23  45 S9        30.27R
ROCK SPRINGS   FAIR      44  22  41 SW6       30.23R
DIXON          FAIR      40  21  46 NE5       30.24R
RAWLINS        FAIR      39  24  55 N12       30.22R WCI  32
SARATOGA       FAIR      41  18  38 W5        30.24R
LARAMIE        FAIR      36  23  59 NW14      30.20R WCI  27
CHEYENNE       FAIR      46  24  42 NW9       30.15R
TORRINGTON     MOCLDY    49  34  56 N14       30.08R
PINE BLUFFS    FAIR      41  32  70 NW9       30.12R

$$




USA.gov is the U.S. government's official web portal to all federal, state and local government web resources and services.